Time,TemperatureF,DewpointF,PressureIn,WindDirection,WindDirectionDegrees,WindSpeedMPH,WindSpeedGustMPH,Humidity,HourlyPrecipIn,Conditions,Clouds,dailyrainin,SoftwareType,DateUTC
2013-06-08 00:02:00,59.7,51.8,29.50,NW,307,0.0,0.0,78,0.00,,,0.00,WUHU216WMR968SP,2013-06-08 05:02:00,
2013-06-08 00:08:00,59.5,51.8,29.50,NW,307,0.0,0.0,78,0.00,,,0.00,WUHU216WMR968SP,2013-06-08 05:08:00,
2013-06-08 00:13:00,59.4,51.8,29.50,NW,307,0.0,0.0,79,0.00,,,0.00,WUHU216WMR968SP,2013-06-08 05:13:00,
2013-06-08 00:18:00,59.4,51.8,29.53,NW,307,0.0,0.0,79,0.00,,,0.00,WUHU216WMR968SP,2013-06-08 05:18:00,
2013-06-08 00:24:00,59.4,51.8,29.53,NW,307,0.0,0.0,79,0.00,,,0.00,WUHU216WMR968SP,2013-06-08 05:24:00,
2013-06-08 00:29:00,59.2,51.8,29.53,NW,307,0.0,0.0,79,0.00,,,0.00,WUHU216WMR968SP,2013-06-08 05:29:00,
2013-06-08 00:35:00,59.2,51.8,29.53,NW,307,0.0,0.0,79,0.00,,,0.00,WUHU216WMR968SP,2013-06-08 05:35:00,
2013-06-08 00:40:00,59.2,53.6,29.53,NW,307,0.0,0.0,80,0.00,,,0.00,WUHU216WMR968SP,2013-06-08 05:40:00,
2013-06-08 00:46:00,59.4,53.6,29.53,NW,307,0.0,0.0,80,0.00,,,0.00,WUHU216WMR968SP,2013-06-08 05:46:00,
2013-06-08 00:51:00,59.4,53.6,29.53,NW,307,0.0,0.0,81,0.00,,,0.00,WUHU216WMR968SP,2013-06-08 05:51:00,
2013-06-08 00:57:00,59.4,53.6,29.53,NW,307,0.0,0.0,82,0.00,,,0.00,WUHU216WMR968SP,2013-06-08 05:57:00,
2013-06-08 01:02:00,59.2,53.6,29.53,NW,307,0.0,0.0,82,0.00,,,0.00,WUHU216WMR968SP,2013-06-08 06:02:00,
2013-06-08 01:07:00,59.0,53.6,29.53,NW,307,0.0,0.0,82,0.00,,,0.00,WUHU216WMR968SP,2013-06-08 06:07:00,
2013-06-08 01:13:00,59.0,53.6,29.53,NW,307,0.0,0.0,82,0.00,,,0.00,WUHU216WMR968SP,2013-06-08 06:13:00,
2013-06-08 01:18:00,58.8,53.6,29.53,NW,307,0.0,0.0,83,0.00,,,0.00,WUHU216WMR968SP,2013-06-08 06:18:00,
2013-06-08 01:24:00,58.5,53.6,29.53,NW,307,0.0,0.0,83,0.00,,,0.00,WUHU216WMR968SP,2013-06-08 06:24:00,
2013-06-08 01:29:00,58.5,53.6,29.53,NW,307,0.0,0.0,83,0.00,,,0.00,WUHU216WMR968SP,2013-06-08 06:29:00,
2013-06-08 01:35:00,58.3,53.6,29.53,NW,307,0.0,0.0,83,0.00,,,0.00,WUHU216WMR968SP,2013-06-08 06:35:00,
2013-06-08 01:40:00,58.3,53.6,29.53,NW,307,0.0,0.0,83,0.00,,,0.00,WUHU216WMR968SP,2013-06-08 06:40:00,
2013-06-08 01:45:00,58.1,53.6,29.53,NW,307,0.0,0.0,83,0.00,,,0.00,WUHU216WMR968SP,2013-06-08 06:45:00,
2013-06-08 01:51:00,58.1,53.6,29.53,NW,307,0.0,0.0,83,0.00,,,0.00,WUHU216WMR968SP,2013-06-08 06:51:00,
2013-06-08 01:56:00,58.1,53.6,29.53,NW,307,0.0,0.0,84,0.00,,,0.00,WUHU216WMR968SP,2013-06-08 06:56:00,
2013-06-08 02:02:00,57.9,51.8,29.53,NW,307,0.0,0.0,84,0.00,,,0.00,WUHU216WMR968SP,2013-06-08 07:02:00,
2013-06-08 02:07:00,57.9,51.8,29.53,NW,307,0.0,0.0,84,0.00,,,0.00,WUHU216WMR968SP,2013-06-08 07:07:00,
2013-06-08 02:13:00,57.7,51.8,29.53,NW,307,0.0,0.0,84,0.00,,,0.00,WUHU216WMR968SP,2013-06-08 07:13:00,
2013-06-08 02:18:00,57.7,51.8,29.53,NW,307,0.0,0.0,84,0.00,,,0.00,WUHU216WMR968SP,2013-06-08 07:18:00,
2013-06-08 02:23:00,57.7,51.8,29.53,NW,307,0.0,0.0,84,0.00,,,0.00,WUHU216WMR968SP,2013-06-08 07:23:00,
2013-06-08 02:29:00,57.6,51.8,29.53,NW,307,0.0,0.0,84,0.00,,,0.00,WUHU216WMR968SP,2013-06-08 07:29:00,
2013-06-08 02:34:00,57.6,51.8,29.53,NW,307,0.0,0.0,84,0.00,,,0.00,WUHU216WMR968SP,2013-06-08 07:34:00,
2013-06-08 02:40:00,57.9,51.8,29.53,NW,307,0.0,0.0,84,0.00,,,0.00,WUHU216WMR968SP,2013-06-08 07:40:00,
2013-06-08 02:45:00,58.1,55.4,29.53,NW,307,0.0,0.0,85,0.00,,,0.00,WUHU216WMR968SP,2013-06-08 07:45:00,
2013-06-08 02:50:00,57.9,53.6,29.53,NW,307,0.0,0.0,85,0.00,,,0.00,WUHU216WMR968SP,2013-06-08 07:50:00,
2013-06-08 02:56:00,57.9,53.6,29.53,NW,307,0.0,0.0,85,0.00,,,0.00,WUHU216WMR968SP,2013-06-08 07:56:00,
2013-06-08 03:01:00,57.7,53.6,29.53,NW,307,0.0,0.0,85,0.00,,,0.00,WUHU216WMR968SP,2013-06-08 08:01:00,
2013-06-08 03:07:00,57.6,53.6,29.53,NW,307,0.0,0.0,85,0.00,,,0.00,WUHU216WMR968SP,2013-06-08 08:07:00,
2013-06-08 03:12:00,57.2,53.6,29.53,NW,307,0.0,0.0,86,0.00,,,0.00,WUHU216WMR968SP,2013-06-08 08:12:00,
2013-06-08 03:18:00,57.0,53.6,29.53,NW,307,0.0,0.0,86,0.00,,,0.00,WUHU216WMR968SP,2013-06-08 08:18:00,
2013-06-08 03:23:00,57.0,53.6,29.53,NW,307,0.0,0.0,86,0.00,,,0.00,WUHU216WMR968SP,2013-06-08 08:23:00,
2013-06-08 03:28:00,56.8,53.6,29.53,NW,307,0.0,0.0,86,0.00,,,0.00,WUHU216WMR968SP,2013-06-08 08:28:00,
2013-06-08 03:34:00,56.8,53.6,29.53,NW,307,0.0,0.0,87,0.00,,,0.00,WUHU216WMR968SP,2013-06-08 08:34:00,
2013-06-08 03:39:00,56.8,53.6,29.53,NW,307,0.0,0.0,87,0.00,,,0.00,WUHU216WMR968SP,2013-06-08 08:39:00,
2013-06-08 03:45:00,56.8,53.6,29.53,NW,307,0.0,0.0,87,0.00,,,0.00,WUHU216WMR968SP,2013-06-08 08:45:00,
2013-06-08 03:50:00,56.8,53.6,29.53,NW,307,0.0,0.0,87,0.00,,,0.00,WUHU216WMR968SP,2013-06-08 08:50:00,
2013-06-08 03:56:00,56.8,53.6,29.53,NW,307,0.0,0.0,87,0.00,,,0.00,WUHU216WMR968SP,2013-06-08 08:56:00,
2013-06-08 04:01:00,56.8,53.6,29.53,NW,307,0.0,0.0,87,0.00,,,0.00,WUHU216WMR968SP,2013-06-08 09:01:00,
2013-06-08 04:06:00,56.8,53.6,29.53,NW,307,0.0,0.0,87,0.00,,,0.00,WUHU216WMR968SP,2013-06-08 09:06:00,
2013-06-08 04:12:00,57.0,53.6,29.53,NW,307,0.0,0.0,87,0.00,,,0.00,WUHU216WMR968SP,2013-06-08 09:12:00,
2013-06-08 04:17:00,57.2,53.6,29.53,NW,307,0.0,0.0,87,0.00,,,0.00,WUHU216WMR968SP,2013-06-08 09:17:00,
2013-06-08 04:23:00,57.0,53.6,29.53,NW,307,0.0,0.0,88,0.00,,,0.00,WUHU216WMR968SP,2013-06-08 09:23:00,
2013-06-08 04:28:00,56.7,53.6,29.53,NW,307,0.0,0.0,88,0.00,,,0.00,WUHU216WMR968SP,2013-06-08 09:28:00,
2013-06-08 04:34:00,56.5,53.6,29.53,NW,307,0.0,0.0,88,0.00,,,0.00,WUHU216WMR968SP,2013-06-08 09:34:00,
2013-06-08 04:39:00,56.7,53.6,29.53,NW,307,0.0,0.0,88,0.00,,,0.00,WUHU216WMR968SP,2013-06-08 09:39:00,
2013-06-08 04:44:00,56.5,53.6,29.53,NW,307,0.0,0.0,88,0.00,,,0.00,WUHU216WMR968SP,2013-06-08 09:44:00,
2013-06-08 04:50:00,56.3,53.6,29.56,NW,307,0.0,0.0,88,0.00,,,0.00,WUHU216WMR968SP,2013-06-08 09:50:00,
2013-06-08 04:55:00,56.3,53.6,29.56,NW,307,0.0,0.0,88,0.00,,,0.00,WUHU216WMR968SP,2013-06-08 09:55:00,
2013-06-08 05:01:00,56.3,53.6,29.56,NW,307,0.0,0.0,88,0.00,,,0.00,WUHU216WMR968SP,2013-06-08 10:01:00,
2013-06-08 05:06:00,56.3,53.6,29.56,NW,307,0.0,0.0,89,0.00,,,0.00,WUHU216WMR968SP,2013-06-08 10:06:00,
2013-06-08 05:12:00,56.5,53.6,29.56,NW,307,0.0,0.0,90,0.00,,,0.00,WUHU216WMR968SP,2013-06-08 10:12:00,
2013-06-08 05:17:00,56.7,53.6,29.56,NW,307,0.0,0.0,90,0.00,,,0.00,WUHU216WMR968SP,2013-06-08 10:17:00,
2013-06-08 05:23:00,56.5,53.6,29.56,NW,308,0.0,0.0,90,0.00,,,0.00,WUHU216WMR968SP,2013-06-08 10:23:00,
2013-06-08 05:28:00,56.5,53.6,29.56,NW,308,0.0,0.0,90,0.00,,,0.00,WUHU216WMR968SP,2013-06-08 10:28:00,
2013-06-08 05:33:00,56.3,55.4,29.56,NW,308,0.0,0.0,91,0.00,,,0.00,WUHU216WMR968SP,2013-06-08 10:33:00,
2013-06-08 05:39:00,56.1,53.6,29.56,NW,308,0.0,0.0,91,0.00,,,0.00,WUHU216WMR968SP,2013-06-08 10:39:00,
2013-06-08 05:44:00,55.9,53.6,29.56,NW,308,0.0,0.0,91,0.00,,,0.00,WUHU216WMR968SP,2013-06-08 10:44:00,
2013-06-08 05:50:00,56.1,53.6,29.56,NW,308,0.0,0.0,91,0.00,,,0.00,WUHU216WMR968SP,2013-06-08 10:50:00,
2013-06-08 05:55:00,56.1,53.6,29.56,NW,308,0.0,0.0,91,0.00,,,0.00,WUHU216WMR968SP,2013-06-08 10:55:00,
2013-06-08 06:01:00,56.1,53.6,29.56,NW,308,0.0,0.0,91,0.00,,,0.00,WUHU216WMR968SP,2013-06-08 11:01:00,
2013-06-08 06:06:00,56.1,53.6,29.56,NW,308,0.0,0.0,91,0.00,,,0.00,WUHU216WMR968SP,2013-06-08 11:06:00,
2013-06-08 06:11:00,56.1,53.6,29.56,NW,308,0.0,0.0,91,0.00,,,0.00,WUHU216WMR968SP,2013-06-08 11:11:00,
2013-06-08 06:17:00,56.7,55.4,29.56,NW,308,0.0,0.0,92,0.00,,,0.00,WUHU216WMR968SP,2013-06-08 11:17:00,
2013-06-08 06:22:00,57.4,55.4,29.56,NW,308,0.0,0.0,92,0.00,,,0.00,WUHU216WMR968SP,2013-06-08 11:22:00,
2013-06-08 06:28:00,57.9,55.4,29.56,NW,308,0.0,0.0,92,0.00,,,0.00,WUHU216WMR968SP,2013-06-08 11:28:00,
2013-06-08 06:33:00,59.0,57.2,29.56,NW,308,0.0,0.0,92,0.00,,,0.00,WUHU216WMR968SP,2013-06-08 11:33:00,
2013-06-08 06:39:00,59.2,57.2,29.56,NW,308,0.0,0.0,92,0.00,,,0.00,WUHU216WMR968SP,2013-06-08 11:39:00,
2013-06-08 06:44:00,59.0,57.2,29.56,NW,308,0.0,0.0,91,0.00,,,0.00,WUHU216WMR968SP,2013-06-08 11:44:00,
2013-06-08 06:49:00,59.2,57.2,29.59,NW,308,0.0,0.0,91,0.00,,,0.00,WUHU216WMR968SP,2013-06-08 11:49:00,
2013-06-08 06:55:00,59.4,57.2,29.59,NW,308,0.0,0.0,91,0.00,,,0.00,WUHU216WMR968SP,2013-06-08 11:55:00,
2013-06-08 07:00:00,59.7,57.2,29.59,NW,308,0.0,0.0,91,0.00,,,0.00,WUHU216WMR968SP,2013-06-08 12:00:00,
2013-06-08 07:06:00,59.9,59.0,29.59,NW,308,0.0,0.0,91,0.00,,,0.00,WUHU216WMR968SP,2013-06-08 12:06:00,
2013-06-08 07:11:00,60.4,59.0,29.59,NW,308,0.0,0.0,91,0.00,,,0.00,WUHU216WMR968SP,2013-06-08 12:11:00,
2013-06-08 07:16:00,61.0,59.0,29.59,NW,308,0.0,0.0,91,0.00,,,0.00,WUHU216WMR968SP,2013-06-08 12:16:00,
2013-06-08 07:22:00,61.3,59.0,29.59,NW,308,0.0,0.0,91,0.00,,,0.00,WUHU216WMR968SP,2013-06-08 12:22:00,
2013-06-08 07:27:00,61.9,60.8,29.59,NW,308,0.0,0.0,91,0.00,,,0.00,WUHU216WMR968SP,2013-06-08 12:27:00,
2013-06-08 07:33:00,62.4,60.8,29.59,NW,308,0.0,0.0,91,0.00,,,0.00,WUHU216WMR968SP,2013-06-08 12:33:00,
2013-06-08 07:38:00,63.1,60.8,29.59,NW,308,0.0,0.0,91,0.00,,,0.00,WUHU216WMR968SP,2013-06-08 12:38:00,
2013-06-08 07:44:00,63.7,62.6,29.59,NW,308,0.0,0.0,91,0.00,,,0.00,WUHU216WMR968SP,2013-06-08 12:44:00,
2013-06-08 07:49:00,64.8,62.6,29.59,NW,308,0.0,0.0,91,0.00,,,0.00,WUHU216WMR968SP,2013-06-08 12:49:00,
2013-06-08 07:54:00,65.7,64.4,29.59,NW,308,0.0,0.0,91,0.00,,,0.00,WUHU216WMR968SP,2013-06-08 12:54:00,
2013-06-08 08:00:00,66.2,62.6,29.59,NW,308,0.0,0.0,88,0.00,,,0.00,WUHU216WMR968SP,2013-06-08 13:00:00,
2013-06-08 08:05:00,66.9,59.0,29.59,NW,308,0.0,0.0,80,0.00,,,0.00,WUHU216WMR968SP,2013-06-08 13:05:00,
2013-06-08 08:11:00,68.0,60.8,29.59,NW,308,0.0,0.0,77,0.00,,,0.00,WUHU216WMR968SP,2013-06-08 13:11:00,
2013-06-08 08:16:00,68.9,62.6,29.59,NW,308,0.0,0.0,76,0.00,,,0.00,WUHU216WMR968SP,2013-06-08 13:16:00,
2013-06-08 08:22:00,69.8,60.8,29.59,NW,308,0.0,0.0,73,0.00,,,0.00,WUHU216WMR968SP,2013-06-08 13:22:00,
2013-06-08 08:27:00,72.5,57.2,29.59,NW,308,0.0,2.2,58,0.00,,,0.00,WUHU216WMR968SP,2013-06-08 13:27:00,
2013-06-08 08:32:00,77.4,51.8,29.59,NW,308,0.0,2.2,41,0.00,,,0.00,WUHU216WMR968SP,2013-06-08 13:32:00,
2013-06-08 08:38:00,80.8,46.4,29.59,NW,308,0.0,2.2,31,0.00,,,0.00,WUHU216WMR968SP,2013-06-08 13:38:00,
2013-06-08 08:43:00,83.1,46.4,29.59,NW,308,0.0,0.0,29,0.00,,,0.00,WUHU216WMR968SP,2013-06-08 13:43:00,
2013-06-08 08:49:00,85.1,46.4,29.59,NW,308,0.0,0.0,25,0.00,,,0.00,WUHU216WMR968SP,2013-06-08 13:49:00,
2013-06-08 08:54:00,87.4,48.2,29.59,NW,308,0.0,0.0,25,0.00,,,0.00,WUHU216WMR968SP,2013-06-08 13:54:00,
2013-06-08 09:00:00,89.4,46.4,29.59,NW,308,0.0,0.0,22,0.00,,,0.00,WUHU216WMR968SP,2013-06-08 14:00:00,
2013-06-08 09:05:00,90.3,42.8,29.62,NW,308,0.0,0.0,19,0.00,,,0.00,WUHU216WMR968SP,2013-06-08 14:05:00,
2013-06-08 09:10:00,89.6,42.8,29.62,SSW,195,3.1,3.6,19,0.00,,,0.00,WUHU216WMR968SP,2013-06-08 14:10:00,
2013-06-08 09:16:00,89.4,41.0,29.62,SSW,197,2.4,4.9,18,0.00,,,0.00,WUHU216WMR968SP,2013-06-08 14:16:00,
2013-06-08 09:21:00,89.4,41.0,29.62,SSE,164,2.7,4.9,18,0.00,,,0.00,WUHU216WMR968SP,2013-06-08 14:21:00,
2013-06-08 09:27:00,88.9,41.0,29.62,SSE,155,2.7,4.0,18,0.00,,,0.00,WUHU216WMR968SP,2013-06-08 14:27:00,
2013-06-08 09:32:00,89.2,41.0,29.62,South,191,0.0,4.0,18,0.00,,,0.00,WUHU216WMR968SP,2013-06-08 14:32:00,
2013-06-08 09:38:00,87.6,41.0,29.62,South,191,0.0,3.1,19,0.00,,,0.00,WUHU216WMR968SP,2013-06-08 14:38:00,
2013-06-08 09:43:00,83.7,39.2,29.62,NNE,27,2.7,4.0,21,0.00,,,0.00,WUHU216WMR968SP,2013-06-08 14:43:00,
2013-06-08 09:49:00,81.7,41.0,29.62,ENE,77,0.0,4.0,23,0.00,,,0.00,WUHU216WMR968SP,2013-06-08 14:49:00,
2013-06-08 09:54:00,80.4,41.0,29.62,SW,216,0.0,3.1,24,0.00,,,0.00,WUHU216WMR968SP,2013-06-08 14:54:00,
2013-06-08 09:59:00,80.1,42.8,29.62,SSW,202,2.7,3.6,27,0.00,,,0.00,WUHU216WMR968SP,2013-06-08 14:59:00,
2013-06-08 10:05:00,80.2,41.0,29.62,WSW,256,2.2,3.6,25,0.00,,,0.00,WUHU216WMR968SP,2013-06-08 15:05:00,
2013-06-08 10:10:00,80.6,42.8,29.62,SW,214,3.1,4.0,27,0.00,,,0.00,WUHU216WMR968SP,2013-06-08 15:10:00,
2013-06-08 10:16:00,80.6,41.0,29.62,East,96,0.0,4.0,25,0.00,,,0.00,WUHU216WMR968SP,2013-06-08 15:16:00,
2013-06-08 10:21:00,81.3,42.8,29.62,East,101,2.7,4.0,26,0.00,,,0.00,WUHU216WMR968SP,2013-06-08 15:21:00,
2013-06-08 10:27:00,82.0,42.8,29.62,ESE,116,2.2,4.0,24,0.00,,,0.00,WUHU216WMR968SP,2013-06-08 15:27:00,
2013-06-08 10:32:00,82.4,41.0,29.62,South,182,3.1,5.8,23,0.00,,,0.00,WUHU216WMR968SP,2013-06-08 15:32:00,
2013-06-08 10:37:00,81.7,42.8,29.62,SSW,200,2.2,5.4,24,0.00,,,0.00,WUHU216WMR968SP,2013-06-08 15:37:00,
2013-06-08 10:43:00,80.8,37.4,29.62,SW,225,2.7,5.4,22,0.00,,,0.00,WUHU216WMR968SP,2013-06-08 15:43:00,
2013-06-08 10:48:00,81.1,41.0,29.62,South,185,2.2,5.4,24,0.00,,,0.00,WUHU216WMR968SP,2013-06-08 15:48:00,
2013-06-08 10:54:00,81.5,37.4,29.62,South,180,2.2,5.4,20,0.00,,,0.00,WUHU216WMR968SP,2013-06-08 15:54:00,
2013-06-08 10:59:00,81.9,39.2,29.62,SSE,152,2.2,5.4,21,0.00,,,0.00,WUHU216WMR968SP,2013-06-08 15:59:00,
2013-06-08 11:05:00,81.9,39.2,29.62,SSE,152,0.0,4.9,21,0.00,,,0.00,WUHU216WMR968SP,2013-06-08 16:05:00,
2013-06-08 11:10:00,82.0,37.4,29.62,SSW,200,3.1,4.9,20,0.00,,,0.00,WUHU216WMR968SP,2013-06-08 16:10:00,
2013-06-08 11:15:00,81.9,37.4,29.62,NW,322,0.0,5.8,20,0.00,,,0.00,WUHU216WMR968SP,2013-06-08 16:15:00,
2013-06-08 11:21:00,80.4,35.6,29.62,NW,316,2.7,5.4,20,0.00,,,0.00,WUHU216WMR968SP,2013-06-08 16:21:00,
2013-06-08 11:26:00,80.2,35.6,29.62,SSW,204,0.0,5.4,20,0.00,,,0.00,WUHU216WMR968SP,2013-06-08 16:26:00,
2013-06-08 11:31:00,81.0,33.8,29.62,North,10,3.0,5.4,19,0.00,,,0.00,WUHU216WMR968SP,2013-06-08 16:31:00,
2013-06-08 11:37:00,81.3,33.8,29.62,North,9,0.0,5.4,19,0.00,,,0.00,WUHU216WMR968SP,2013-06-08 16:37:00,
2013-06-08 11:42:00,81.5,35.6,29.62,NNE,12,3.1,5.4,19,0.00,,,0.00,WUHU216WMR968SP,2013-06-08 16:42:00,
2013-06-08 11:48:00,81.1,33.8,29.62,SW,236,0.0,3.6,19,0.00,,,0.00,WUHU216WMR968SP,2013-06-08 16:48:00,
2013-06-08 11:53:00,81.3,35.6,29.62,South,179,0.0,2.7,20,0.00,,,0.00,WUHU216WMR968SP,2013-06-08 16:53:00,
2013-06-08 11:59:00,80.8,35.6,29.62,South,182,0.0,4.5,20,0.00,,,0.00,WUHU216WMR968SP,2013-06-08 16:59:00,
2013-06-08 12:04:00,80.2,35.6,29.62,WNW,300,2.2,4.9,20,0.00,,,0.00,WUHU216WMR968SP,2013-06-08 17:04:00,
2013-06-08 12:09:00,81.0,35.6,29.62,South,191,4.0,5.8,20,0.00,,,0.00,WUHU216WMR968SP,2013-06-08 17:09:00,
2013-06-08 12:15:00,82.2,37.4,29.62,SE,137,0.0,5.8,20,0.00,,,0.00,WUHU216WMR968SP,2013-06-08 17:15:00,
2013-06-08 12:20:00,82.4,35.6,29.59,SSW,194,2.2,3.6,19,0.00,,,0.00,WUHU216WMR968SP,2013-06-08 17:20:00,
2013-06-08 12:26:00,82.2,37.4,29.59,South,185,0.0,4.5,20,0.00,,,0.00,WUHU216WMR968SP,2013-06-08 17:26:00,
2013-06-08 12:31:00,84.0,37.4,29.59,SE,146,3.4,5.8,19,0.00,,,0.00,WUHU216WMR968SP,2013-06-08 17:31:00,
2013-06-08 12:37:00,83.1,35.6,29.59,SSE,161,0.0,5.4,19,0.00,,,0.00,WUHU216WMR968SP,2013-06-08 17:37:00,
2013-06-08 12:42:00,81.3,33.8,29.59,SSE,161,0.0,3.1,19,0.00,,,0.00,WUHU216WMR968SP,2013-06-08 17:42:00,
2013-06-08 12:47:00,80.4,35.6,29.59,SSE,161,0.0,2.2,20,0.00,,,0.00,WUHU216WMR968SP,2013-06-08 17:47:00,
2013-06-08 12:53:00,80.4,35.6,29.59,SSE,161,0.0,0.0,20,0.00,,,0.00,WUHU216WMR968SP,2013-06-08 17:53:00,
2013-06-08 12:58:00,80.4,35.6,29.59,SSE,161,0.0,0.0,20,0.00,,,0.00,WUHU216WMR968SP,2013-06-08 17:58:00,
2013-06-08 13:04:00,80.8,35.6,29.59,East,79,0.0,3.1,20,0.00,,,0.00,WUHU216WMR968SP,2013-06-08 18:04:00,
2013-06-08 13:09:00,81.7,37.4,29.59,NNW,333,2.7,4.0,20,0.00,,,0.00,WUHU216WMR968SP,2013-06-08 18:09:00,
2013-06-08 13:15:00,83.1,39.2,29.59,South,176,4.0,6.3,21,0.00,,,0.00,WUHU216WMR968SP,2013-06-08 18:15:00,
2013-06-08 13:20:00,84.7,37.4,29.59,SSW,196,4.5,6.3,19,0.00,,,0.00,WUHU216WMR968SP,2013-06-08 18:20:00,
2013-06-08 13:26:00,84.9,37.4,29.59,SSW,197,4.0,6.3,19,0.00,,,0.00,WUHU216WMR968SP,2013-06-08 18:26:00,
2013-06-08 13:31:00,85.3,39.2,29.59,SE,143,3.6,6.3,19,0.00,,,0.00,WUHU216WMR968SP,2013-06-08 18:31:00,
2013-06-08 13:36:00,85.6,39.2,29.59,SSE,164,3.4,5.4,19,0.00,,,0.00,WUHU216WMR968SP,2013-06-08 18:36:00,
2013-06-08 13:42:00,86.2,39.2,29.59,SSE,150,2.6,8.3,19,0.00,,,0.00,WUHU216WMR968SP,2013-06-08 18:42:00,
2013-06-08 13:47:00,86.9,39.2,29.59,South,186,5.8,8.3,18,0.00,,,0.00,WUHU216WMR968SP,2013-06-08 18:47:00,
2013-06-08 13:53:00,87.1,39.2,29.59,SSE,159,3.4,7.6,18,0.00,,,0.00,WUHU216WMR968SP,2013-06-08 18:53:00,
2013-06-08 13:58:00,86.2,37.4,29.59,ESE,122,2.7,6.3,18,0.00,,,0.00,WUHU216WMR968SP,2013-06-08 18:58:00,
2013-06-08 14:04:00,85.6,37.4,29.59,ESE,115,0.0,4.9,18,0.00,,,0.00,WUHU216WMR968SP,2013-06-08 19:04:00,
2013-06-08 14:09:00,85.3,37.4,29.59,WSW,253,2.2,4.0,18,0.00,,,0.00,WUHU216WMR968SP,2013-06-08 19:09:00,
2013-06-08 14:14:00,85.5,39.2,29.59,SE,142,4.0,5.8,19,0.00,,,0.00,WUHU216WMR968SP,2013-06-08 19:14:00,
2013-06-08 14:20:00,85.6,33.8,29.59,SE,143,2.3,5.8,16,0.00,,,0.00,WUHU216WMR968SP,2013-06-08 19:20:00,
2013-06-08 14:25:00,85.5,39.2,29.59,SSW,210,4.5,7.2,19,0.00,,,0.00,WUHU216WMR968SP,2013-06-08 19:25:00,
2013-06-08 14:30:00,85.1,37.4,29.59,SSW,192,2.7,7.2,18,0.00,,,0.00,WUHU216WMR968SP,2013-06-08 19:30:00,
2013-06-08 14:36:00,84.2,37.4,29.59,SW,235,0.0,5.8,19,0.00,,,0.00,WUHU216WMR968SP,2013-06-08 19:36:00,
2013-06-08 14:42:00,83.8,37.4,29.59,SSE,155,2.9,5.4,19,0.00,,,0.00,WUHU216WMR968SP,2013-06-08 19:42:00,
2013-06-08 14:47:00,83.3,37.4,29.59,SSW,194,2.7,5.4,19,0.00,,,0.00,WUHU216WMR968SP,2013-06-08 19:47:00,
2013-06-08 14:52:00,83.8,39.2,29.59,South,178,4.0,5.4,20,0.00,,,0.00,WUHU216WMR968SP,2013-06-08 19:52:00,
2013-06-08 14:58:00,84.7,37.4,29.59,South,171,4.0,6.3,19,0.00,,,0.00,WUHU216WMR968SP,2013-06-08 19:58:00,
2013-06-08 15:03:00,85.3,39.2,29.59,SSE,161,3.7,6.3,19,0.00,,,0.00,WUHU216WMR968SP,2013-06-08 20:03:00,
2013-06-08 15:09:00,84.9,37.4,29.59,SE,126,3.0,6.3,19,0.00,,,0.00,WUHU216WMR968SP,2013-06-08 20:09:00,
2013-06-08 15:14:00,84.6,37.4,29.59,SSW,202,3.6,5.8,19,0.00,,,0.00,WUHU216WMR968SP,2013-06-08 20:14:00,
2013-06-08 15:19:00,84.6,39.2,29.59,SW,222,3.1,5.4,20,0.00,,,0.00,WUHU216WMR968SP,2013-06-08 20:19:00,
2013-06-08 15:25:00,84.9,37.4,29.59,SSE,167,4.3,6.3,19,0.00,,,0.00,WUHU216WMR968SP,2013-06-08 20:25:00,
2013-06-08 15:30:00,84.4,37.4,29.59,SSE,150,3.2,6.3,19,0.00,,,0.00,WUHU216WMR968SP,2013-06-08 20:30:00,
2013-06-08 15:36:00,84.2,37.4,29.56,South,179,4.9,10.1,19,0.00,,,0.00,WUHU216WMR968SP,2013-06-08 20:36:00,
2013-06-08 15:41:00,84.6,37.4,29.56,South,182,4.9,10.1,19,0.00,,,0.00,WUHU216WMR968SP,2013-06-08 20:41:00,
2013-06-08 15:47:00,85.1,39.2,29.56,South,177,3.7,8.1,19,0.00,,,0.00,WUHU216WMR968SP,2013-06-08 20:47:00,
2013-06-08 15:52:00,84.7,37.4,29.56,SE,139,2.7,7.6,19,0.00,,,0.00,WUHU216WMR968SP,2013-06-08 20:52:00,
2013-06-08 15:57:00,84.7,35.6,29.56,SSW,197,4.8,7.6,18,0.00,,,0.00,WUHU216WMR968SP,2013-06-08 20:57:00,
2013-06-08 16:03:00,84.7,37.4,29.56,SSW,202,0.0,7.6,19,0.00,,,0.00,WUHU216WMR968SP,2013-06-08 21:03:00,
2013-06-08 16:08:00,83.8,37.4,29.56,SSE,164,3.6,6.7,19,0.00,,,0.00,WUHU216WMR968SP,2013-06-08 21:08:00,
2013-06-08 16:14:00,83.1,35.6,29.56,SSE,165,3.1,6.7,19,0.00,,,0.00,WUHU216WMR968SP,2013-06-08 21:14:00,
2013-06-08 16:19:00,82.9,35.6,29.56,South,191,3.0,4.0,19,0.00,,,0.00,WUHU216WMR968SP,2013-06-08 21:19:00,
2013-06-08 16:24:00,83.5,37.4,29.56,ESE,102,2.7,6.3,19,0.00,,,0.00,WUHU216WMR968SP,2013-06-08 21:24:00,
2013-06-08 16:30:00,83.5,37.4,29.56,SSE,159,3.1,6.3,19,0.00,,,0.00,WUHU216WMR968SP,2013-06-08 21:30:00,
2013-06-08 16:35:00,83.1,35.6,29.56,South,184,4.0,7.6,19,0.00,,,0.00,WUHU216WMR968SP,2013-06-08 21:35:00,
2013-06-08 16:41:00,83.3,37.4,29.56,South,184,5.5,8.1,19,0.00,,,0.00,WUHU216WMR968SP,2013-06-08 21:41:00,
2013-06-08 16:46:00,82.9,35.6,29.56,SSW,193,4.3,8.1,19,0.00,,,0.00,WUHU216WMR968SP,2013-06-08 21:46:00,
2013-06-08 16:52:00,82.6,35.6,29.56,SE,135,3.1,8.1,19,0.00,,,0.00,WUHU216WMR968SP,2013-06-08 21:52:00,
2013-06-08 16:57:00,82.8,35.6,29.56,South,176,4.2,6.3,19,0.00,,,0.00,WUHU216WMR968SP,2013-06-08 21:57:00,
2013-06-08 17:03:00,82.6,35.6,29.56,SSE,162,3.1,6.3,19,0.00,,,0.00,WUHU216WMR968SP,2013-06-08 22:03:00,
2013-06-08 17:08:00,82.8,37.4,29.56,South,181,3.1,5.4,20,0.00,,,0.00,WUHU216WMR968SP,2013-06-08 22:08:00,
2013-06-08 17:13:00,83.3,37.4,29.56,SSW,198,4.5,5.8,19,0.00,,,0.00,WUHU216WMR968SP,2013-06-08 22:13:00,
2013-06-08 17:19:00,82.8,35.6,29.56,South,191,3.6,5.8,19,0.00,,,0.00,WUHU216WMR968SP,2013-06-08 22:19:00,
2013-06-08 17:24:00,82.2,37.4,29.56,SE,132,2.2,4.9,20,0.00,,,0.00,WUHU216WMR968SP,2013-06-08 22:24:00,
2013-06-08 17:30:00,82.0,37.4,29.56,SSW,196,3.6,4.0,20,0.00,,,0.00,WUHU216WMR968SP,2013-06-08 22:30:00,
2013-06-08 17:35:00,82.2,37.4,29.56,SSE,168,3.4,5.8,20,0.00,,,0.00,WUHU216WMR968SP,2013-06-08 22:35:00,
2013-06-08 17:41:00,82.4,35.6,29.56,South,177,2.5,5.8,19,0.00,,,0.00,WUHU216WMR968SP,2013-06-08 22:41:00,
2013-06-08 17:46:00,82.6,35.6,29.56,SE,138,4.0,5.4,19,0.00,,,0.00,WUHU216WMR968SP,2013-06-08 22:46:00,
2013-06-08 17:52:00,82.6,35.6,29.56,SSE,161,3.1,5.8,19,0.00,,,0.00,WUHU216WMR968SP,2013-06-08 22:52:00,
2013-06-08 17:57:00,82.9,35.6,29.56,SSW,200,3.6,5.8,19,0.00,,,0.00,WUHU216WMR968SP,2013-06-08 22:57:00,
2013-06-08 18:02:00,83.3,37.4,29.56,SE,140,3.1,5.8,19,0.00,,,0.00,WUHU216WMR968SP,2013-06-08 23:02:00,
2013-06-08 18:08:00,83.5,37.4,29.56,South,180,3.1,5.8,19,0.00,,,0.00,WUHU216WMR968SP,2013-06-08 23:08:00,
2013-06-08 18:13:00,87.8,39.2,29.56,SSW,195,5.4,7.6,18,0.00,,,0.00,WUHU216WMR968SP,2013-06-08 23:13:00,
2013-06-08 18:19:00,87.6,35.6,29.56,South,175,3.7,7.6,16,0.00,,,0.00,WUHU216WMR968SP,2013-06-08 23:19:00,
2013-06-08 18:24:00,91.2,41.0,29.56,SSE,155,3.1,5.8,17,0.00,,,0.00,WUHU216WMR968SP,2013-06-08 23:24:00,
2013-06-08 18:29:00,92.3,37.4,29.56,South,177,2.7,5.4,14,0.00,,,0.00,WUHU216WMR968SP,2013-06-08 23:29:00,
2013-06-08 18:35:00,90.7,37.4,29.56,South,182,2.7,5.4,15,0.00,,,0.00,WUHU216WMR968SP,2013-06-08 23:35:00,
2013-06-08 18:40:00,92.3,42.8,29.56,South,191,3.1,5.4,17,0.00,,,0.00,WUHU216WMR968SP,2013-06-08 23:40:00,
2013-06-08 18:46:00,93.6,37.4,29.56,South,173,2.2,4.0,14,0.00,,,0.00,WUHU216WMR968SP,2013-06-08 23:46:00,
2013-06-08 18:51:00,95.0,39.2,29.56,South,186,0.0,4.0,14,0.00,,,0.00,WUHU216WMR968SP,2013-06-08 23:51:00,
2013-06-08 18:57:00,96.4,39.2,29.56,South,177,3.1,5.4,14,0.00,,,0.00,WUHU216WMR968SP,2013-06-08 23:57:00,
2013-06-08 19:02:00,97.0,37.4,29.56,South,185,0.0,5.4,13,0.00,,,0.00,WUHU216WMR968SP,2013-06-09 00:02:00,
2013-06-08 19:07:00,96.8,37.4,29.56,SSW,205,0.0,3.1,13,0.00,,,0.00,WUHU216WMR968SP,2013-06-09 00:07:00,
2013-06-08 19:13:00,96.8,37.4,29.56,SSW,205,0.0,3.1,13,0.00,,,0.00,WUHU216WMR968SP,2013-06-09 00:13:00,
2013-06-08 19:18:00,95.7,39.2,29.56,SSW,205,0.0,0.0,14,0.00,,,0.00,WUHU216WMR968SP,2013-06-09 00:18:00,
2013-06-08 19:24:00,95.0,39.2,29.56,ESE,111,0.0,0.0,14,0.00,,,0.00,WUHU216WMR968SP,2013-06-09 00:24:00,
2013-06-08 19:29:00,88.9,35.6,29.56,ESE,103,0.0,2.2,15,0.00,,,0.00,WUHU216WMR968SP,2013-06-09 00:29:00,
2013-06-08 19:34:00,83.5,37.4,29.56,ESE,116,0.0,2.2,19,0.00,,,0.00,WUHU216WMR968SP,2013-06-09 00:34:00,
2013-06-08 19:40:00,80.1,37.4,29.56,East,96,0.0,3.1,22,0.00,,,0.00,WUHU216WMR968SP,2013-06-09 00:40:00,
2013-06-08 19:45:00,78.1,41.0,29.56,East,90,2.2,3.6,26,0.00,,,0.00,WUHU216WMR968SP,2013-06-09 00:45:00,
2013-06-08 19:51:00,77.0,39.2,29.56,East,89,0.0,3.6,26,0.00,,,0.00,WUHU216WMR968SP,2013-06-09 00:51:00,
2013-06-08 19:56:00,75.9,41.0,29.56,East,81,0.0,3.1,29,0.00,,,0.00,WUHU216WMR968SP,2013-06-09 00:56:00,
2013-06-08 20:02:00,74.8,42.8,29.56,East,99,0.0,0.0,31,0.00,,,0.00,WUHU216WMR968SP,2013-06-09 01:02:00,
2013-06-08 20:07:00,73.9,42.8,29.56,ESE,103,0.0,0.0,33,0.00,,,0.00,WUHU216WMR968SP,2013-06-09 01:07:00,
2013-06-08 20:13:00,73.2,42.8,29.56,ESE,103,0.0,0.0,34,0.00,,,0.00,WUHU216WMR968SP,2013-06-09 01:13:00,
2013-06-08 20:18:00,72.7,44.6,29.56,ESE,103,0.0,0.0,36,0.00,,,0.00,WUHU216WMR968SP,2013-06-09 01:18:00,
2013-06-08 20:23:00,72.1,44.6,29.56,ESE,103,0.0,0.0,37,0.00,,,0.00,WUHU216WMR968SP,2013-06-09 01:23:00,
2013-06-08 20:29:00,71.6,44.6,29.56,ESE,103,0.0,0.0,37,0.00,,,0.00,WUHU216WMR968SP,2013-06-09 01:29:00,
2013-06-08 20:34:00,71.1,44.6,29.59,ESE,103,0.0,0.0,38,0.00,,,0.00,WUHU216WMR968SP,2013-06-09 01:34:00,
2013-06-08 20:40:00,70.7,44.6,29.59,ESE,103,0.0,0.0,38,0.00,,,0.00,WUHU216WMR968SP,2013-06-09 01:40:00,
2013-06-08 20:45:00,70.3,44.6,29.59,ESE,103,0.0,0.0,39,0.00,,,0.00,WUHU216WMR968SP,2013-06-09 01:45:00,
2013-06-08 20:50:00,70.0,46.4,29.59,ESE,103,0.0,0.0,42,0.00,,,0.00,WUHU216WMR968SP,2013-06-09 01:50:00,
2013-06-08 20:56:00,69.8,46.4,29.59,ESE,103,0.0,0.0,43,0.00,,,0.00,WUHU216WMR968SP,2013-06-09 01:56:00,
2013-06-08 21:01:00,69.6,46.4,29.59,ESE,103,0.0,0.0,44,0.00,,,0.00,WUHU216WMR968SP,2013-06-09 02:01:00,
2013-06-08 21:07:00,69.3,46.4,29.59,ESE,103,0.0,0.0,44,0.00,,,0.00,WUHU216WMR968SP,2013-06-09 02:07:00,
2013-06-08 21:12:00,69.1,46.4,29.59,ESE,103,0.0,0.0,43,0.00,,,0.00,WUHU216WMR968SP,2013-06-09 02:12:00,
2013-06-08 21:18:00,68.9,46.4,29.59,ESE,103,0.0,0.0,43,0.00,,,0.00,WUHU216WMR968SP,2013-06-09 02:18:00,
2013-06-08 21:23:00,68.5,44.6,29.59,ESE,106,0.0,0.0,44,0.00,,,0.00,WUHU216WMR968SP,2013-06-09 02:23:00,
2013-06-08 21:29:00,68.7,46.4,29.59,ENE,69,0.0,0.0,45,0.00,,,0.00,WUHU216WMR968SP,2013-06-09 02:29:00,
2013-06-08 21:34:00,68.7,46.4,29.59,ENE,69,0.0,0.0,45,0.00,,,0.00,WUHU216WMR968SP,2013-06-09 02:34:00,
2013-06-08 21:39:00,68.7,46.4,29.59,ENE,71,0.0,0.0,45,0.00,,,0.00,WUHU216WMR968SP,2013-06-09 02:39:00,
2013-06-08 21:45:00,68.4,46.4,29.59,East,101,0.0,0.0,45,0.00,,,0.00,WUHU216WMR968SP,2013-06-09 02:45:00,
2013-06-08 21:50:00,68.2,46.4,29.59,East,81,0.0,3.6,45,0.00,,,0.00,WUHU216WMR968SP,2013-06-09 02:50:00,
2013-06-08 21:56:00,68.2,46.4,29.59,ESE,106,0.0,3.6,45,0.00,,,0.00,WUHU216WMR968SP,2013-06-09 02:56:00,
2013-06-08 22:01:00,68.4,46.4,29.59,East,99,2.2,4.0,45,0.00,,,0.00,WUHU216WMR968SP,2013-06-09 03:01:00,
2013-06-08 22:07:00,68.7,44.6,29.59,ENE,76,2.7,4.0,44,0.00,,,0.00,WUHU216WMR968SP,2013-06-09 03:07:00,
2013-06-08 22:12:00,68.7,44.6,29.59,SE,126,2.2,3.6,44,0.00,,,0.00,WUHU216WMR968SP,2013-06-09 03:12:00,
2013-06-08 22:17:00,68.7,44.6,29.59,SE,127,2.2,3.1,44,0.00,,,0.00,WUHU216WMR968SP,2013-06-09 03:17:00,
2013-06-08 22:23:00,68.5,46.4,29.59,South,183,0.0,3.1,45,0.00,,,0.00,WUHU216WMR968SP,2013-06-09 03:23:00,
2013-06-08 22:28:00,68.2,46.4,29.59,South,182,0.0,3.1,45,0.00,,,0.00,WUHU216WMR968SP,2013-06-09 03:28:00,
2013-06-08 22:34:00,67.8,48.2,29.59,SE,146,0.0,2.7,48,0.00,,,0.00,WUHU216WMR968SP,2013-06-09 03:34:00,
2013-06-08 22:39:00,67.8,48.2,29.59,ESE,104,0.0,2.7,49,0.00,,,0.00,WUHU216WMR968SP,2013-06-09 03:39:00,
2013-06-08 22:45:00,67.6,48.2,29.59,ESE,104,0.0,0.0,50,0.00,,,0.00,WUHU216WMR968SP,2013-06-09 03:45:00,
2013-06-08 22:50:00,67.3,48.2,29.59,ESE,103,0.0,0.0,50,0.00,,,0.00,WUHU216WMR968SP,2013-06-09 03:50:00,
2013-06-08 22:55:00,66.9,46.4,29.59,ESE,103,0.0,0.0,49,0.00,,,0.00,WUHU216WMR968SP,2013-06-09 03:55:00,
2013-06-08 23:01:00,66.7,46.4,29.59,SE,127,0.0,0.0,50,0.00,,,0.00,WUHU216WMR968SP,2013-06-09 04:01:00,
2013-06-08 23:06:00,66.6,48.2,29.59,ESE,103,0.0,0.0,51,0.00,,,0.00,WUHU216WMR968SP,2013-06-09 04:06:00,
2013-06-08 23:12:00,66.4,48.2,29.59,ESE,119,0.0,0.0,51,0.00,,,0.00,WUHU216WMR968SP,2013-06-09 04:12:00,
2013-06-08 23:17:00,66.4,48.2,29.59,East,97,0.0,0.0,52,0.00,,,0.00,WUHU216WMR968SP,2013-06-09 04:17:00,
2013-06-08 23:23:00,66.6,50.0,29.59,East,96,0.0,0.0,55,0.00,,,0.00,WUHU216WMR968SP,2013-06-09 04:23:00,
2013-06-08 23:28:00,66.7,50.0,29.59,East,90,0.0,0.0,55,0.00,,,0.00,WUHU216WMR968SP,2013-06-09 04:28:00,
2013-06-08 23:33:00,66.6,50.0,29.59,ESE,113,0.0,0.0,55,0.00,,,0.00,WUHU216WMR968SP,2013-06-09 04:33:00,
2013-06-08 23:39:00,66.4,50.0,29.59,ESE,113,0.0,0.0,54,0.00,,,0.00,WUHU216WMR968SP,2013-06-09 04:39:00,
2013-06-08 23:44:00,66.2,50.0,29.59,ESE,113,0.0,0.0,55,0.00,,,0.00,WUHU216WMR968SP,2013-06-09 04:44:00,
2013-06-08 23:50:00,66.0,50.0,29.59,ESE,113,0.0,0.0,55,0.00,,,0.00,WUHU216WMR968SP,2013-06-09 04:50:00,
2013-06-08 23:55:00,65.8,50.0,29.59,ESE,113,0.0,0.0,54,0.00,,,0.00,WUHU216WMR968SP,2013-06-09 04:55:00,